Terminal Aerodrome Forecast
Issued by NWS

Home | Current Version | Previous Version | Text Only | Print | Product List | Glossary Off
Versions: 1 2 3 4 5 6 7 8 9 10 11 12 13 14 15 16 17 18 19 20 21 22

000
FTUS43 KGRB 071700
TAFATW
TAF
KATW 071724Z 0718/0818 26010G16KT P6SM SCT035 SCT060
     FM072000 27012G18KT P6SM VCTS SCT035CB BKN060
     FM080000 25009KT P6SM VCTS SCT035CB BKN070
     FM080200 25006KT P6SM -SHRA SCT025 OVC050
      TEMPO 0803/0807 2SM TSRA BR BKN025CB
     FM080700 27006KT 5SM -SHRA BR SCT007 OVC018
     FM081100 29008KT 5SM BR SCT005 OVC010
     FM081600 30011KT P6SM VCSH SCT015 BKN035=

USA.gov is the U.S. government's official web portal to all federal, state and local government web resources and services.